TimeMDT,TemperatureF,Dew PointF,Humidity,Sea Level PressureIn,VisibilityMPH,Wind Direction,Wind SpeedMPH,Gust SpeedMPH,PrecipitationIn,Events,Conditions,WindDirDegrees,DateUTC
12:53 AM,75.0,52.0,44,29.85,10.0,West,8.1,-,N/A,,Clear,270,2013-07-09 06:53:00
1:53 AM,71.1,55.0,57,29.86,10.0,WSW,5.8,-,N/A,,Clear,250,2013-07-09 07:53:00
2:53 AM,72.0,55.9,57,29.86,10.0,West,6.9,-,N/A,,Clear,270,2013-07-09 08:53:00
3:53 AM,71.1,54.0,55,29.86,10.0,West,8.1,-,N/A,,Clear,260,2013-07-09 09:53:00
4:53 AM,73.0,54.0,51,29.85,10.0,West,8.1,-,N/A,,Clear,260,2013-07-09 10:53:00
5:53 AM,70.0,54.0,57,29.86,10.0,WSW,6.9,-,N/A,,Clear,240,2013-07-09 11:53:00
6:53 AM,73.9,54.0,50,29.88,10.0,West,5.8,-,N/A,,Clear,270,2013-07-09 12:53:00
7:53 AM,80.1,57.0,45,29.90,10.0,WNW,10.4,-,N/A,,Clear,300,2013-07-09 13:53:00
8:53 AM,87.1,59.0,39,29.91,10.0,NW,12.7,-,N/A,,Clear,320,2013-07-09 14:53:00
9:53 AM,90.0,61.0,38,29.91,10.0,NNW,8.1,-,N/A,,Clear,330,2013-07-09 15:53:00
10:53 AM,95.0,55.0,26,29.91,10.0,North,10.4,-,N/A,,Clear,360,2013-07-09 16:53:00
11:53 AM,97.0,55.0,24,29.92,10.0,NNE,9.2,-,N/A,,Clear,20,2013-07-09 17:53:00
12:53 PM,98.1,54.0,23,29.91,10.0,NE,9.2,17.3,N/A,,Clear,50,2013-07-09 18:53:00
1:53 PM,100.0,52.0,20,29.90,10.0,ENE,5.8,-,N/A,,Clear,70,2013-07-09 19:53:00
2:53 PM,97.0,52.0,22,29.89,10.0,North,6.9,-,N/A,,Clear,10,2013-07-09 20:53:00
3:13 PM,96.8,51.8,22,30.06,10.0,Calm,Calm,-,N/A,Thunderstorm,Clear,0,2013-07-09 21:13:00
3:28 PM,96.8,51.8,22,30.06,10.0,NW,4.6,-,N/A,,Clear,310,2013-07-09 21:28:00
3:53 PM,97.0,50.0,20,29.88,10.0,NNE,5.8,-,N/A,Thunderstorm,Thunderstorm,20,2013-07-09 21:53:00
4:27 PM,82.4,64.4,54,30.06,10.0,West,8.1,-,0.01,Rain,Light Rain,260,2013-07-09 22:27:00
4:53 PM,91.0,63.0,39,29.90,10.0,SW,3.5,-,0.01,,Clear,220,2013-07-09 22:53:00
5:53 PM,91.9,55.9,30,29.89,10.0,SE,10.4,-,N/A,,Clear,140,2013-07-09 23:53:00
6:53 PM,91.0,57.9,33,29.88,10.0,ESE,5.8,-,N/A,,Clear,110,2013-07-10 00:53:00
7:53 PM,84.9,59.0,41,29.89,10.0,ESE,3.5,-,N/A,,Clear,120,2013-07-10 01:53:00
8:53 PM,80.1,55.9,43,29.93,10.0,ESE,12.7,-,N/A,,Clear,120,2013-07-10 02:53:00
9:53 PM,73.0,57.9,59,29.97,10.0,East,4.6,-,N/A,,Clear,100,2013-07-10 03:53:00
10:53 PM,71.1,57.9,63,29.95,10.0,SSE,9.2,-,N/A,,Clear,160,2013-07-10 04:53:00
11:53 PM,70.0,59.0,68,30.01,10.0,North,6.9,-,N/A,,Clear,10,2013-07-10 05:53:00